QPF
0.00 0.00 0.00 0.00 0.00 0.00 0.00 0.00 0.00 0.00 0.00 0.00 0.00 0.00 0.00 0.00 0.00 0.00 0.00 0.00 0.00 0.00 0.00 0.00 0.00 0.00 0.00 0.00 0.00 0.00 0.00 0.00 0.00 0.00 0.00 0.00 0.00 0.00 0.00 0.00 0.00 0.01 0.01
0.00 0.00 0.00 0.00 0.00 0.00 0.00 0.00 0.00 0.00 0.00 0.00 0.00 0.00 0.00 0.00 0.00 0.00 0.00 0.00 0.00 0.00 0.00 0.00 0.00 0.00 0.00 0.00 0.00 0.00 0.00 0.00 0.00 0.00 0.00 0.00 0.00 0.00 0.00 0.01 0.01 0.01 0.01
0.00 0.01 0.00 0.00 0.00 0.00 0.00 0.00 0.00 0.00 0.00 0.00 0.00 0.00 0.00 0.00 0.00 0.00 0.00 0.00 0.00 0.00 0.00 0.00 0.00 0.00 0.00 0.00 0.00 0.00 0.00 0.00 0.00 0.00 0.00 0.00 0.00 0.01 0.01 0.01 0.01 0.01 0.01
0.00 0.01 0.00 0.00 0.00 0.00 0.00 0.00 0.00 0.00 0.00 0.00 0.00 0.00 0.00 0.00 0.00 0.00 0.00 0.00 0.00 0.00 0.00 0.00 0.00 0.00 0.00 0.00 0.00 0.00 0.00 0.00 0.00 0.00 0.00 0.00 0.01 0.01 0.01 0.01 0.01 0.01 0.01
0.00 0.01 0.01 0.00 0.00 0.00 0.00 0.00 0.00 0.00 0.00 0.00 0.00 0.00 0.00 0.00 0.00 0.00 0.00 0.00 0.00 0.00 0.00 0.00 0.00 0.00 0.00 0.00 0.00 0.00 0.00 0.00 0.00 0.00 0.00 0.00 0.01 0.01 0.01 0.01 0.01 0.01 0.01
0.01 0.01 0.01 0.00 0.00 0.00 0.00 0.00 0.00 0.00 0.00 0.00 0.00 0.00 0.00 0.00 0.00 0.00 0.00 0.00 0.00 0.00 0.00 0.00 0.00 0.00 0.00 0.00 0.00 0.00 0.00 0.00 0.00 0.00 0.00 0.00 0.00 0.01 0.01 0.01 0.01 0.01 0.02
0.01 0.01 0.01 0.01 0.00 0.00 0.00 0.00 0.00 0.00 0.00 0.00 0.00 0.00 0.00 0.00 0.00 0.00 0.00 0.00 0.00 0.00 0.00 0.00 0.00 0.00 0.00 0.00 0.00 0.00 0.00 0.00 0.00 0.00 0.00 0.00 0.00 0.01 0.01 0.01 0.02 0.02 0.02
0.03 0.01 0.00 0.00 0.00 0.00 0.00 0.00 0.00 0.00 0.00 0.00 0.00 0.00 0.00 0.00 0.00 0.00 0.00 0.00 0.00 0.00 0.00 0.00 0.00 0.00 0.00 0.00 0.00 0.00 0.00 0.00 0.00 0.00 0.00 0.00 0.00 0.01 0.01 0.01 0.01 0.02 0.02
0.04 0.02 0.01 0.00 0.00 0.00 0.00 0.00 0.00 0.00 0.00 0.00 0.00 0.00 0.00 0.00 0.00 0.00 0.00 0.00 0.00 0.00 0.00 0.00 0.00 0.00 0.00 0.00 0.00 0.00 0.00 0.00 0.00 0.00 0.00 0.00 0.00 0.00 0.01 0.01 0.01 0.02 0.02
0.03 0.03 0.02 0.01 0.00 0.00 0.00 0.00 0.00 0.00 0.00 0.00 0.00 0.00 0.00 0.00 0.00 0.00 0.00 0.00 0.00 0.00 0.00 0.00 0.00 0.00 0.00 0.00 0.00 0.00 0.00 0.00 0.00 0.00 0.00 0.00 0.00 0.00 0.01 0.01 0.01 0.01 0.02
0.03 0.02 0.02 0.02 0.01 0.00 0.00 0.00 0.00 0.00 0.00 0.00 0.00 0.00 0.00 0.00 0.00 0.00 0.00 0.00 0.00 0.00 0.00 0.00 0.00 0.00 0.00 0.00 0.00 0.00 0.00 0.00 0.00 0.00 0.00 0.00 0.00 0.00 0.01 0.01 0.01 0.01 0.01
0.04 0.03 0.02 0.02 0.02 0.01 0.00 0.00 0.00 0.00 0.00 0.00 0.00 0.00 0.00 0.00 0.00 0.00 0.00 0.00 0.00 0.00 0.00 0.00 0.00 0.00 0.00 0.00 0.00 0.00 0.00 0.00 0.00 0.00 0.00 0.00 0.00 0.00 0.00 0.01 0.01 0.01 0.01
0.04 0.03 0.02 0.02 0.02 0.01 0.00 0.00 0.00 0.00 0.00 0.00 0.00 0.00 0.00 0.00 0.00 0.00 0.00 0.01 0.01 0.01 0.00 0.00 0.00 0.00 0.00 0.00 0.00 0.00 0.00 0.00 0.00 0.00 0.00 0.00 0.00 0.00 0.00 0.00 0.01 0.01 0.01
0.04 0.03 0.02 0.03 0.03 0.02 0.01 0.00 0.00 0.00 0.00 0.00 0.00 0.00 0.00 0.00 0.00 0.00 0.01 0.01 0.01 0.00 0.00 0.00 0.00 0.00 0.00 0.00 0.00 0.00 0.00 0.00 0.00 0.00 0.00 0.00 0.00 0.00 0.00 0.00 0.01 0.01 0.01
0.07 0.05 0.03 0.03 0.03 0.03 0.02 0.01 0.00 0.00 0.00 0.00 0.00 0.00 0.00 0.00 0.00 0.01 0.00 0.00 0.00 0.00 0.00 0.00 0.00 0.00 0.00 0.00 0.00 0.00 0.00 0.00 0.00 0.00 0.00 0.00 0.00 0.00 0.00 0.00 0.00 0.01 0.01
0.09 0.08 0.05 0.03 0.03 0.02 0.02 0.01 0.00 0.00 0.00 0.00 0.01 0.00 0.00 0.00 0.00 0.00 0.00 0.00 0.00 0.01 0.00 0.00 0.00 0.00 0.00 0.00 0.00 0.00 0.00 0.00 0.00 0.00 0.00 0.00 0.00 0.00 0.00 0.00 0.00 0.00 0.01
0.07 0.07 0.06 0.04 0.02 0.02 0.01 0.01 0.00 0.00 0.00 0.00 0.00 0.00 0.00 0.00 0.00 0.00 0.00 0.00 0.01 0.00 0.00 0.00 0.00 0.00 0.00 0.00 0.00 0.00 0.00 0.00 0.00 0.00 0.00 0.00 0.00 0.00 0.00 0.00 0.00 0.00 0.01
0.06 0.06 0.06 0.04 0.03 0.01 0.01 0.01 0.00 0.00 0.00 0.00 0.00 0.00 0.00 0.00 0.00 0.00 0.00 0.00 0.00 0.00 0.00 0.01 0.00 0.00 0.00 0.00 0.00 0.00 0.00 0.00 0.00 0.00 0.00 0.00 0.00 0.00 0.00 0.00 0.00 0.00 0.00
0.04 0.05 0.06 0.06 0.04 0.02 0.01 0.00 0.00 0.00 0.00 0.00 0.00 0.00 0.00 0.00 0.00 0.00 0.00 0.00 0.00 0.00 0.01 0.00 0.00 0.00 0.00 0.00 0.00 0.00 0.00 0.00 0.00 0.00 0.00 0.00 0.00 0.00 0.00 0.00 0.00 0.00 0.00
0.03 0.04 0.04 0.04 0.04 0.03 0.02 0.01 0.00 0.00 0.00 0.00 0.00 0.00 0.00 0.00 0.00 0.00 0.00 0.00 0.00 0.00 0.00 0.00 0.00 0.00 0.00 0.00 0.00 0.00 0.00 0.00 0.00 0.00 0.00 0.00 0.00 0.00 0.00 0.00 0.00 0.00 0.00
0.04 0.03 0.04 0.04 0.03 0.03 0.03 0.02 0.01 0.00 0.01 0.01 0.01 0.01 0.01 0.00 0.00 0.00 0.01 0.01 0.01 0.01 0.01 0.01 0.01 0.01 0.01 0.01 0.00 0.00 0.00 0.00 0.00 0.00 0.00 0.00 0.00 0.00 0.00 0.00 0.00 0.00 0.00
0.09 0.05 0.03 0.03 0.03 0.03 0.03 0.02 0.01 0.01 0.01 0.01 0.01 0.01 0.01 0.01 0.01 0.01 0.01 0.01 0.01 0.01 0.01 0.01 0.01 0.01 0.01 0.00 0.00 0.00 0.00 0.00 0.00 0.00 0.00 0.00 0.00 0.00 0.00 0.00 0.00 0.00 0.00
0.13 0.09 0.05 0.04 0.03 0.02 0.03 0.02 0.01 0.01 0.00 0.00 0.00 0.01 0.01 0.01 0.02 0.01 0.01 0.01 0.01 0.01 0.01 0.01 0.01 0.01 0.00 0.01 0.01 0.00 0.00 0.00 0.00 0.00 0.00 0.00 0.00 0.00 0.00 0.00 0.00 0.00 0.00
0.13 0.11 0.09 0.05 0.04 0.03 0.03 0.03 0.02 0.01 0.01 0.00 0.00 0.00 0.01 0.01 0.01 0.01 0.00 0.01 0.01 0.01 0.01 0.01 0.00 0.00 0.01 0.01 0.00 0.00 0.00 0.00 0.00 0.00 0.00 0.00 0.00 0.00 0.00 0.00 0.00 0.00 0.00
0.10 0.11 0.10 0.08 0.05 0.04 0.03 0.04 0.04 0.02 0.01 0.01 0.01 0.01 0.01 0.00 0.01 0.01 0.01 0.01 0.01 0.01 0.01 0.01 0.01 0.01 0.01 0.01 0.00 0.00 0.00 0.00 0.00 0.00 0.00 0.00 0.00 0.00 0.00 0.00 0.00 0.00 0.00
0.08 0.09 0.09 0.09 0.07 0.05 0.04 0.05 0.06 0.05 0.03 0.02 0.01 0.01 0.01 0.01 0.02 0.02 0.02 0.02 0.03 0.02 0.01 0.01 0.01 0.01 0.00 0.00 0.00 0.00 0.00 0.00 0.00 0.00 0.00 0.00 0.00 0.00 0.00 0.00 0.00 0.00 0.00
MSLP
1013.90 1014.53 1015.05 1015.49 1015.85 1016.15 1016.40 1016.63 1016.83 1017.03 1017.22 1017.40 1017.58 1017.74 1017.91 1018.07 1018.23 1018.39 1018.55 1018.70 1018.84 1018.96 1019.05 1019.12 1019.15 1019.17 1019.17 1019.16 1019.16 1019.16 1019.16 1019.17 1019.17 1019.17 1019.15 1019.12 1019.06 1018.98 1018.87 1018.74 1018.58 1018.40 1018.21
1013.77 1014.43 1014.99 1015.45 1015.82 1016.12 1016.38 1016.61 1016.82 1017.03 1017.24 1017.44 1017.65 1017.85 1018.04 1018.22 1018.40 1018.57 1018.73 1018.87 1019.01 1019.12 1019.21 1019.27 1019.31 1019.32 1019.33 1019.33 1019.33 1019.33 1019.34 1019.35 1019.36 1019.36 1019.35 1019.31 1019.24 1019.14 1019.01 1018.86 1018.67 1018.47 1018.25
1013.56 1014.25 1014.84 1015.33 1015.73 1016.06 1016.33 1016.57 1016.80 1017.02 1017.25 1017.48 1017.71 1017.93 1018.15 1018.35 1018.54 1018.71 1018.87 1019.02 1019.15 1019.26 1019.34 1019.41 1019.45 1019.47 1019.48 1019.48 1019.48 1019.48 1019.49 1019.49 1019.49 1019.48 1019.45 1019.40 1019.31 1019.19 1019.03 1018.85 1018.64 1018.42 1018.20
1013.27 1013.99 1014.61 1015.14 1015.58 1015.94 1016.24 1016.50 1016.75 1016.99 1017.23 1017.48 1017.73 1017.97 1018.21 1018.42 1018.62 1018.80 1018.96 1019.11 1019.24 1019.35 1019.44 1019.50 1019.55 1019.57 1019.58 1019.58 1019.57 1019.56 1019.54 1019.53 1019.51 1019.48 1019.43 1019.35 1019.24 1019.10 1018.92 1018.72 1018.50 1018.27 1018.04
1012.91 1013.65 1014.32 1014.89 1015.37 1015.77 1016.10 1016.39 1016.66 1016.91 1017.17 1017.43 1017.70 1017.95 1018.19 1018.42 1018.62 1018.81 1018.97 1019.11 1019.24 1019.35 1019.44 1019.50 1019.55 1019.57 1019.57 1019.56 1019.54 1019.50 1019.47 1019.43 1019.39 1019.33 1019.26 1019.16 1019.03 1018.86 1018.68 1018.46 1018.24 1018.01 1017.78
1012.49 1013.26 1013.95 1014.57 1015.09 1015.53 1015.90 1016.22 1016.51 1016.78 1017.05 1017.33 1017.60 1017.86 1018.11 1018.34 1018.54 1018.72 1018.88 1019.02 1019.13 1019.23 1019.31 1019.37 1019.41 1019.42 1019.42 1019.39 1019.35 1019.31 1019.25 1019.19 1019.12 1019.04 1018.94 1018.82 1018.68 1018.51 1018.31 1018.10 1017.88 1017.66 1017.45
1012.03 1012.81 1013.53 1014.18 1014.74 1015.22 1015.62 1015.97 1016.29 1016.58 1016.87 1017.16 1017.44 1017.71 1017.96 1018.18 1018.38 1018.55 1018.69 1018.81 1018.91 1018.99 1019.05 1019.10 1019.12 1019.13 1019.12 1019.08 1019.04 1018.98 1018.91 1018.83 1018.74 1018.64 1018.53 1018.40 1018.24 1018.07 1017.87 1017.67 1017.46 1017.24 1017.03
1011.52 1012.31 1013.05 1013.72 1014.31 1014.82 1015.26 1015.65 1016.00 1016.32 1016.63 1016.94 1017.23 1017.51 1017.76 1017.98 1018.17 1018.31 1018.43 1018.51 1018.58 1018.63 1018.67 1018.70 1018.71 1018.71 1018.70 1018.67 1018.62 1018.57 1018.50 1018.41 1018.32 1018.21 1018.08 1017.94 1017.77 1017.59 1017.40 1017.19 1016.98 1016.77 1016.55
1010.96 1011.76 1012.51 1013.20 1013.81 1014.35 1014.82 1015.24 1015.62 1015.98 1016.33 1016.67 1016.98 1017.28 1017.54 1017.75 1017.92 1018.03 1018.11 1018.16 1018.18 1018.20 1018.21 1018.22 1018.22 1018.23 1018.22 1018.21 1018.19 1018.14 1018.09 1018.01 1017.92 1017.80 1017.67 1017.51 1017.34 1017.14 1016.94 1016.72 1016.49 1016.26 1016.03
1010.35 1011.15 1011.90 1012.60 1013.22 1013.78 1014.28 1014.74 1015.17 1015.57 1015.96 1016.34 1016.69 1017.01 1017.28 1017.50 1017.65 1017.74 1017.78 1017.78 1017.76 1017.74 1017.72 1017.71 1017.72 1017.73 1017.76 1017.78 1017.79 1017.78 1017.75 1017.70 1017.61 1017.50 1017.35 1017.18 1016.98 1016.76 1016.53 1016.28 1016.03 1015.77 1015.51
1009.68 1010.47 1011.23 1011.92 1012.56 1013.13 1013.66 1014.15 1014.62 1015.08 1015.52 1015.95 1016.35 1016.70 1016.99 1017.22 1017.36 1017.43 1017.44 1017.40 1017.35 1017.29 1017.25 1017.23 1017.25 1017.29 1017.35 1017.42 1017.47 1017.51 1017.52 1017.50 1017.42 1017.31 1017.15 1016.96 1016.73 1016.48 1016.20 1015.91 1015.62 1015.32 1015.02
1008.95 1009.74 1010.48 1011.18 1011.82 1012.41 1012.96 1013.48 1014.00 1014.50 1015.00 1015.48 1015.93 1016.33 1016.65 1016.89 1017.05 1017.11 1017.10 1017.04 1016.95 1016.88 1016.82 1016.81 1016.84 1016.92 1017.02 1017.14 1017.25 1017.34 1017.39 1017.39 1017.34 1017.23 1017.06 1016.84 1016.58 1016.29 1015.97 1015.64 1015.30 1014.95 1014.60
1008.14 1008.93 1009.68 1010.38 1011.03 1011.63 1012.20 1012.75 1013.30 1013.85 1014.39 1014.92 1015.42 1015.87 1016.23 1016.51 1016.68 1016.75 1016.74 1016.68 1016.59 1016.51 1016.46 1016.46 1016.51 1016.62 1016.76 1016.92 1017.08 1017.22 1017.31 1017.34 1017.30 1017.20 1017.03 1016.79 1016.51 1016.19 1015.83 1015.46 1015.08 1014.70 1014.32
1007.27 1008.07 1008.83 1009.54 1010.21 1010.83 1011.42 1011.99 1012.56 1013.13 1013.71 1014.28 1014.83 1015.31 1015.73 1016.04 1016.25 1016.35 1016.37 1016.33 1016.26 1016.19 1016.15 1016.17 1016.24 1016.37 1016.54 1016.74 1016.93 1017.10 1017.22 1017.28 1017.26 1017.17 1017.00 1016.77 1016.48 1016.15 1015.78 1015.39 1014.99 1014.59 1014.19
1006.34 1007.16 1007.95 1008.69 1009.38 1010.02 1010.62 1011.21 1011.79 1012.38 1012.98 1013.57 1014.14 1014.67 1015.12 1015.49 1015.75 1015.90 1015.97 1015.97 1015.94 1015.90 1015.89 1015.92 1016.02 1016.16 1016.35 1016.56 1016.76 1016.94 1017.08 1017.15 1017.15 1017.08 1016.94 1016.73 1016.46 1016.14 1015.79 1015.42 1015.03 1014.63 1014.23
1005.37 1006.22 1007.05 1007.83 1008.56 1009.23 1009.86 1010.46 1011.04 1011.63 1012.22 1012.81 1013.40 1013.95 1014.44 1014.85 1015.17 1015.39 1015.53 1015.60 1015.63 1015.64 1015.67 1015.73 1015.83 1015.98 1016.16 1016.36 1016.56 1016.73 1016.87 1016.95 1016.98 1016.93 1016.82 1016.65 1016.43 1016.16 1015.86 1015.52 1015.17 1014.80 1014.43
1004.36 1005.26 1006.15 1007.00 1007.78 1008.49 1009.14 1009.74 1010.32 1010.89 1011.46 1012.04 1012.62 1013.18 1013.70 1014.16 1014.55 1014.85 1015.07 1015.23 1015.33 1015.41 1015.49 1015.58 1015.69 1015.84 1016.00 1016.17 1016.34 1016.50 1016.62 1016.71 1016.75 1016.73 1016.67 1016.56 1016.40 1016.20 1015.95 1015.68 1015.38 1015.06 1014.73
1003.34 1004.30 1005.26 1006.18 1007.03 1007.79 1008.47 1009.08 1009.65 1010.19 1010.73 1011.28 1011.84 1012.40 1012.94 1013.46 1013.91 1014.30 1014.62 1014.88 1015.08 1015.23 1015.37 1015.50 1015.63 1015.76 1015.90 1016.04 1016.18 1016.30 1016.41 1016.49 1016.54 1016.55 1016.54 1016.48 1016.38 1016.25 1016.07 1015.86 1015.62 1015.34 1015.05
1002.34 1003.36 1004.39 1005.39 1006.31 1007.13 1007.84 1008.47 1009.02 1009.54 1010.05 1010.56 1011.10 1011.65 1012.21 1012.77 1013.29 1013.77 1014.20 1014.56 1014.86 1015.12 1015.33 1015.50 1015.66 1015.79 1015.92 1016.03 1016.14 1016.23 1016.31 1016.38 1016.43 1016.46 1016.47 1016.46 1016.41 1016.32 1016.20 1016.03 1015.82 1015.58 1015.31
1001.38 1002.45 1003.55 1004.62 1005.61 1006.49 1007.25 1007.89 1008.44 1008.94 1009.41 1009.90 1010.41 1010.96 1011.54 1012.14 1012.73 1013.30 1013.83 1014.30 1014.72 1015.08 1015.37 1015.62 1015.81 1015.97 1016.09 1016.19 1016.27 1016.34 1016.39 1016.44 1016.48 1016.52 1016.54 1016.53 1016.50 1016.43 1016.31 1016.16 1015.96 1015.72 1015.45
1000.48 1001.58 1002.74 1003.87 1004.93 1005.86 1006.66 1007.32 1007.88 1008.37 1008.83 1009.30 1009.81 1010.35 1010.95 1011.59 1012.25 1012.91 1013.54 1014.13 1014.66 1015.12 1015.51 1015.83 1016.09 1016.28 1016.43 1016.53 1016.61 1016.66 1016.70 1016.72 1016.74 1016.76 1016.75 1016.72 1016.66 1016.56 1016.42 1016.23 1015.99 1015.73 1015.43
999.64 1000.76 1001.96 1003.14 1004.24 1005.23 1006.06 1006.76 1007.35 1007.85 1008.31 1008.78 1009.29 1009.86 1010.48 1011.17 1011.89 1012.63 1013.35 1014.05 1014.68 1015.25 1015.74 1016.15 1016.48 1016.73 1016.91 1017.04 1017.13 1017.18 1017.21 1017.21 1017.20 1017.17 1017.12 1017.03 1016.90 1016.73 1016.51 1016.24 1015.94 1015.61 1015.27
998.88 1000.01 1001.21 1002.42 1003.56 1004.58 1005.46 1006.20 1006.82 1007.36 1007.85 1008.35 1008.89 1009.49 1010.15 1010.89 1011.67 1012.48 1013.29 1014.07 1014.80 1015.46 1016.05 1016.54 1016.94 1017.26 1017.50 1017.67 1017.78 1017.85 1017.87 1017.86 1017.81 1017.72 1017.59 1017.42 1017.20 1016.92 1016.60 1016.23 1015.83 1015.42 1015.00
998.20 999.30 1000.51 1001.73 1002.89 1003.94 1004.86 1005.65 1006.32 1006.91 1007.46 1008.02 1008.61 1009.26 1009.99 1010.78 1011.62 1012.50 1013.37 1014.22 1015.02 1015.76 1016.41 1016.98 1017.45 1017.83 1018.13 1018.35 1018.49 1018.58 1018.60 1018.57 1018.48 1018.34 1018.13 1017.86 1017.53 1017.14 1016.70 1016.21 1015.71 1015.20 1014.71
997.57 998.65 999.84 1001.06 1002.23 1003.31 1004.28 1005.13 1005.87 1006.54 1007.17 1007.80 1008.48 1009.21 1010.00 1010.85 1011.76 1012.68 1013.60 1014.50 1015.35 1016.13 1016.83 1017.44 1017.96 1018.39 1018.73 1018.99 1019.17 1019.28 1019.31 1019.26 1019.14 1018.94 1018.67 1018.31 1017.88 1017.38 1016.82 1016.24 1015.63 1015.04 1014.48
996.99 998.05 999.22 1000.42 1001.61 1002.72 1003.74 1004.65 1005.47 1006.24 1006.97 1007.71 1008.49 1009.31 1010.19 1011.11 1012.07 1013.04 1013.99 1014.91 1015.78 1016.57 1017.29 1017.92 1018.46 1018.91 1019.27 1019.56 1019.76 1019.88 1019.91 1019.86 1019.72 1019.48 1019.15 1018.73 1018.22 1017.63 1017.00 1016.32 1015.64 1014.98 1014.37
Thickness
5686 5685 5684 5683 5682 5681 5680 5678 5678 5677 5676 5674 5673 5671 5670 5668 5665 5663 5659 5655 5653 5650 5648 5645 5642 5639 5635 5631 5628 5624 5620 5617 5613 5610 5606 5602 5599 5596 5593 5589 5586 5583 5580
5681 5680 5680 5678 5678 5676 5675 5674 5674 5672 5671 5670 5668 5667 5665 5663 5661 5658 5655 5650 5647 5644 5642 5640 5636 5633 5630 5626 5622 5618 5614 5610 5607 5603 5600 5596 5593 5589 5586 5582 5579 5575 5572
5676 5675 5675 5674 5673 5671 5670 5669 5669 5668 5666 5665 5663 5662 5660 5658 5655 5653 5650 5647 5643 5639 5636 5634 5631 5627 5624 5620 5616 5612 5608 5604 5601 5597 5594 5590 5586 5582 5579 5575 5572 5568 5564
5671 5670 5670 5670 5668 5667 5665 5665 5664 5663 5661 5660 5659 5657 5654 5652 5650 5648 5645 5642 5639 5635 5632 5628 5625 5621 5618 5614 5611 5607 5603 5599 5595 5591 5587 5583 5579 5576 5572 5568 5564 5560 5557
5667 5666 5666 5665 5663 5662 5661 5660 5660 5659 5658 5655 5654 5651 5650 5648 5645 5642 5640 5637 5634 5630 5627 5623 5619 5615 5612 5608 5604 5601 5597 5593 5589 5585 5581 5577 5572 5568 5565 5561 5557 5552 5548
5662 5662 5661 5660 5659 5658 5657 5656 5655 5654 5653 5650 5648 5645 5644 5643 5640 5638 5636 5632 5629 5625 5622 5619 5615 5611 5606 5602 5598 5594 5591 5587 5583 5579 5574 5570 5565 5561 5557 5553 5549 5544 5540
5658 5658 5657 5656 5655 5655 5654 5653 5651 5649 5647 5645 5643 5641 5639 5637 5636 5634 5631 5628 5625 5621 5617 5614 5611 5607 5602 5597 5592 5588 5584 5581 5577 5572 5568 5563 5558 5554 5550 5545 5541 5536 5532
5655 5654 5654 5653 5652 5651 5650 5649 5647 5646 5643 5640 5641 5639 5637 5634 5632 5629 5627 5624 5621 5617 5613 5609 5606 5601 5597 5593 5588 5583 5578 5574 5570 5566 5561 5556 5552 5547 5542 5537 5532 5527 5522
5652 5651 5651 5650 5649 5648 5647 5646 5644 5642 5640 5637 5638 5637 5635 5636 5632 5627 5624 5620 5617 5614 5610 5605 5601 5596 5592 5587 5583 5577 5572 5568 5564 5560 5555 5550 5544 5539 5534 5529 5523 5518 5513
5649 5648 5648 5648 5647 5646 5645 5643 5641 5640 5637 5634 5632 5631 5632 5632 5628 5626 5621 5617 5613 5610 5607 5601 5596 5592 5587 5582 5577 5572 5567 5562 5558 5553 5548 5543 5537 5532 5526 5521 5514 5508 5502
5645 5645 5645 5644 5644 5644 5642 5641 5638 5637 5635 5633 5631 5627 5625 5622 5622 5622 5620 5616 5610 5606 5602 5597 5592 5588 5582 5577 5572 5567 5562 5556 5551 5546 5541 5535 5530 5524 5518 5511 5505 5498 5492
5642 5643 5642 5642 5642 5642 5640 5638 5636 5634 5632 5630 5628 5625 5623 5620 5618 5617 5616 5614 5610 5604 5597 5592 5588 5583 5577 5572 5567 5561 5556 5550 5545 5539 5534 5528 5522 5516 5509 5502 5495 5488 5481
5642 5642 5641 5641 5640 5639 5638 5635 5633 5631 5629 5627 5625 5623 5620 5619 5616 5613 5611 5609 5605 5600 5593 5588 5583 5578 5572 5567 5562 5555 5550 5544 5539 5533 5527 5520 5514 5507 5500 5492 5485 5478 5471
5643 5642 5640 5639 5638 5637 5634 5632 5631 5628 5627 5624 5622 5619 5616 5614 5611 5608 5606 5602 5599 5596 5592 5587 5579 5573 5567 5561 5556 5549 5544 5538 5532 5526 5519 5512 5505 5498 5490 5483 5476 5468 5461
5639 5639 5638 5636 5635 5634 5632 5629 5628 5626 5624 5621 5618 5615 5612 5609 5606 5603 5600 5597 5593 5591 5590 5584 5576 5569 5561 5555 5549 5544 5538 5532 5526 5519 5512 5505 5497 5490 5482 5474 5467 5459 5452
5636 5636 5635 5634 5633 5631 5630 5627 5625 5624 5620 5618 5615 5612 5608 5605 5601 5597 5594 5591 5588 5584 5582 5580 5572 5564 5555 5549 5542 5537 5532 5525 5519 5512 5505 5497 5490 5482 5474 5466 5458 5450 5442
5633 5633 5632 5632 5631 5630 5628 5625 5623 5621 5618 5615 5611 5608 5604 5600 5597 5592 5588 5584 5580 5577 5574 5572 5565 5557 5549 5543 5537 5530 5524 5519 5513 5505 5497 5490 5482 5474 5466 5458 5450 5441 5433
5630 5630 5629 5629 5629 5628 5626 5624 5622 5619 5616 5612 5609 5605 5601 5596 5593 5588 5583 5580 5576 5571 5567 5564 5559 5551 5543 5536 5530 5524 5517 5511 5505 5498 5490 5482 5474 5466 5457 5449 5441 5432 5424
5627 5627 5627 5626 5626 5625 5624 5623 5620 5617 5613 5610 5606 5603 5598 5594 5590 5585 5580 5576 5570 5564 5559 5555 5551 5544 5536 5529 5522 5516 5510 5504 5497 5490 5482 5475 5466 5458 5450 5441 5432 5424 5415
5623 5624 5624 5624 5623 5621 5620 5619 5617 5614 5610 5606 5603 5599 5595 5591 5587 5582 5577 5571 5565 5559 5553 5547 5542 5537 5529 5521 5514 5509 5504 5497 5490 5481 5474 5467 5459 5450 5442 5433 5425 5416 5407
5619 5619 5620 5620 5619 5618 5617 5615 5612 5610 5606 5602 5598 5595 5591 5587 5583 5578 5573 5567 5560 5553 5547 5541 5536 5530 5523 5514 5508 5503 5496 5490 5482 5473 5465 5460 5453 5445 5436 5427 5417 5407 5398
5613 5614 5615 5616 5615 5615 5614 5610 5609 5605 5602 5598 5594 5590 5586 5581 5576 5571 5567 5561 5556 5550 5543 5537 5531 5525 5519 5510 5503 5493 5486 5480 5476 5467 5456 5451 5443 5436 5427 5419 5409 5399 5390
5609 5610 5611 5613 5613 5612 5608 5605 5602 5601 5598 5595 5591 5586 5581 5577 5571 5565 5560 5553 5547 5542 5538 5533 5526 5520 5512 5504 5495 5486 5478 5470 5464 5455 5446 5442 5434 5426 5418 5410 5400 5391 5382
5604 5606 5607 5609 5609 5607 5603 5600 5596 5595 5592 5590 5587 5583 5578 5572 5566 5561 5554 5547 5541 5535 5529 5524 5519 5511 5503 5495 5487 5479 5470 5460 5452 5444 5435 5430 5425 5417 5409 5401 5392 5382 5374
5600 5602 5602 5603 5604 5602 5597 5595 5591 5589 5587 5584 5581 5577 5573 5568 5562 5554 5548 5541 5534 5527 5520 5513 5507 5500 5492 5484 5477 5469 5459 5452 5445 5438 5426 5418 5414 5406 5399 5392 5384 5374 5366
5594 5595 5596 5597 5599 5598 5593 5589 5586 5586 5583 5578 5574 5570 5567 5563 5556 5549 5544 5537 5529 5521 5513 5505 5498 5490 5483 5475 5467 5460 5451 5443 5435 5428 5418 5407 5401 5393 5388 5383 5375 5368 5360